Location: Barcelona
(41.3830°N, 2.1830°E)
Time: 04:04:09
(UTC+02:00)

ISS - Pass Details

Date: 06 July 2020
Orbit: 417 x 421 km, 51.6° (Epoch: 09 July)

Event Time Altitude Azimuth Distance (km) Brightness Sun altitude
Exits shadow 04:56:46 - 289° (WNW) 2,124 -0.4 -13.5°
Reaches altitude 10° 04:58:47 10° 308° (NW) 1,496 -1.0 -13.3°
Maximum altitude 05:00:59 16° 349° (N) 1,176 -1.0 -13.0°
Drops below altitude 10° 05:03:12 10° 31° (NNE) 1,498 0.4 -12.7°
Sets 05:05:53 0° 53° (NE) 2,363 2.0 -12.3°
